Skagway, AK

7:27 PM AKDT on October 20, 2017 (GMT -0800)
Skagway

Weather History for PAGY - October, 2011

Change the Weather History Date:

Tuesday, October 11, 2011

  Actual Average Record
Temperature  
Mean Temperature 48 °F -  
Max Temperature 52 °F 47 °F 58 °F (1991)
Min Temperature 45 °F 38 °F 27 °F (1997)
Degree Days  
Heating Degree Days 16    
Moisture  
Dew Point 34 °F    
Average Humidity 57    
Maximum Humidity 80    
Minimum Humidity 49    
Precipitation  
Precipitation 0.00 in - - ()
Sea Level Pressure  
Sea Level Pressure 29.42 in    
Wind  
Wind Speed 13 mph (NNE)    
Max Wind Speed 20 mph    
Max Gust Speed 28 mph    
Visibility 10 miles    
Events Rain    
Averages and records for this station are not official NWS values.
T = Trace of Precipitation, MM = Missing Value Source: NWS Daily Summary

Daily Weather History Graph

Daily Weather History Graph

Search for Another Location

Airport or City:

Trip Planner

Search our weather history database for the weather conditions in past years. The results will help you decide how hot, cold, wet, or windy it might be!

Date:

Astronomy

Oct. 11, 2011 Rise Set
Actual Time 7:29 AM AKDT 6:05 PM AKDT
Civil Twilight 6:48 AM AKDT 6:46 PM AKDT
Nautical Twilight 6:01 AM AKDT 7:33 PM AKDT
Astronomical Twilight 5:12 AM AKDT 8:21 PM AKDT
Moon 5:23 PM AKDT (10/11) 7:26 AM AKDT (10/11)
Length of Visible Light 11h 57m
Length of Day
10h 35m
Full, 100% of the Moon is Illuminated
Oct 11
Full
Oct 11
Full
Oct 19
Last Quarter
Oct 26
New
Nov 2
First Quarter

Hourly Weather History & Observations

Time (AKDT) Temp. Windchill Dew Point Humidity Pressure Visibility Wind Dir Wind Speed Gust Speed Precip Events Conditions
12:53 AM 48.9 °F - 34.0 °F 56% 29.37 in 10.0 mi NNE 13.8 mph 20.7 mph N/A   Overcast
1:53 AM 48.9 °F - 33.1 °F 54% 29.37 in 10.0 mi NNE 19.6 mph 27.6 mph N/A   Overcast
2:53 AM 48.9 °F - 33.1 °F 54% 29.36 in 10.0 mi NNE 17.3 mph 25.3 mph N/A   Overcast
3:53 AM 48.9 °F - 32.0 °F 52% 29.36 in 10.0 mi NNE 16.1 mph 24.2 mph N/A   Overcast
4:53 AM 48.9 °F - 33.1 °F 54% 29.36 in 10.0 mi NNE 19.6 mph 24.2 mph N/A   Overcast
5:53 AM 48.9 °F - 32.0 °F 52% 29.36 in 10.0 mi NNE 15.0 mph 23.0 mph N/A   Overcast
6:53 AM 48.0 °F - 33.1 °F 56% 29.37 in 10.0 mi NNE 16.1 mph 23.0 mph N/A   Overcast
7:53 AM 48.9 °F - 33.1 °F 54% 29.38 in 10.0 mi NNE 13.8 mph - N/A   Overcast
8:53 AM 48.9 °F - 33.1 °F 54% 29.39 in 10.0 mi NNE 15.0 mph 19.6 mph N/A   Overcast
9:53 AM 50.0 °F - 33.1 °F 52% 29.40 in 10.0 mi NNE 12.7 mph 19.6 mph N/A   Overcast
10:53 AM 50.0 °F - 33.1 °F 52% 29.40 in 10.0 mi NNE 12.7 mph 20.7 mph N/A   Overcast
11:53 AM 51.1 °F - 33.1 °F 50% 29.41 in 10.0 mi NNE 13.8 mph 21.9 mph N/A   Overcast
12:53 PM 51.1 °F - 34.0 °F 52% 29.42 in 10.0 mi NNE 15.0 mph 26.5 mph N/A   Mostly Cloudy
1:53 PM 52.0 °F - 33.1 °F 49% 29.42 in 10.0 mi NE 16.1 mph - N/A   Overcast
2:53 PM 52.0 °F - 34.0 °F 50% 29.43 in 10.0 mi NNE 10.4 mph - N/A   Scattered Clouds
3:53 PM 52.0 °F - 34.0 °F 50% 29.44 in 10.0 mi NNE 8.1 mph - N/A   Partly Cloudy
4:53 PM 51.1 °F - 34.0 °F 52% 29.44 in 10.0 mi NNE 10.4 mph - N/A   Overcast
5:53 PM 50.0 °F - 34.0 °F 54% 29.46 in 10.0 mi NNE 8.1 mph - N/A   Overcast
6:53 PM 48.9 °F - 35.1 °F 59% 29.48 in 10.0 mi NNE 8.1 mph - 0.00 in   Overcast
7:53 PM 48.9 °F - 35.1 °F 59% 29.49 in 10.0 mi Variable 3.5 mph - 0.00 in   Overcast
8:53 PM 46.9 °F - 37.0 °F 68% 29.51 in 10.0 mi Calm Calm - 0.00 in   Overcast
9:53 PM 46.0 °F - 37.9 °F 73% 29.52 in 10.0 mi Calm Calm - 0.00 in Rain Light Rain
10:53 PM 45.0 °F - 39.0 °F 80% 29.52 in 10.0 mi Calm Calm - 0.00 in   Overcast
11:53 PM 46.0 °F 44.8 °F 39.0 °F 76% 29.54 in 10.0 mi Variable 3.5 mph - N/A   Overcast